Location: Kapla
(46.2483°N, 15.0094°E)
Time: 19:31:21
(UTC+00:00)

Cosmos 2322 Rocket - Pass Details

Date: 03 March 2021
Orbit: 832 x 852 km, 71.0° (Epoch: 21 April)

Event Time Altitude Azimuth Distance (km) Brightness Sun altitude
Rises 17:22:48 0° 192° (SSW) 3,361 5.5 -6.6°
Reaches altitude 10° 17:25:15 10° 188° (S) 2,432 4.7 -7.0°
Maximum altitude 17:30:42 58° 111° (ESE) 965 2.2 -8.0°
Drops below altitude 10° 17:36:12 10° 33° (NNE) 2,454 4.3 -8.9°
Sets 17:38:41 0° 30° (NNE) 3,394 5.0 -9.4°
